Location: S�deilles
(46.7500°N, 6.9329°E)
Time: 08:20:51
(UTC+00:00)

Cosmos 2237 Rocket - Pass Details

Date: 08 March 2021
Orbit: 835 x 850 km, 71.0° (Epoch: 14 April)

Event Time Altitude Azimuth Distance (km) Brightness Sun altitude
Rises 20:53:00 0° 236° (SW) 3,404 5.6 -34.2°
Reaches altitude 10° 20:55:42 10° 246° (WSW) 2,474 4.9 -34.5°
Maximum altitude 21:00:46 32° 309° (NW) 1,419 3.8 -35.2°
Drops below altitude 10° 21:05:51 10° 12° (NNE) 2,486 4.9 -35.9°
Sets 21:08:35 0° 22° (NNE) 3,424 5.6 -36.3°
